Location: Praha
(50.0830°N, 14.4670°E)
Time: 05:31:03
(UTC+01:00)

ISS - Pass Details

Date: 26 November 2019
Orbit: 411 x 421 km, 51.6° (Epoch: 15 December)

Event Time Altitude Azimuth Distance (km) Brightness Sun altitude
Rises 16:48:02 0° 210° (SSW) 2,343 1.1 -6.7°
Reaches altitude 10° 16:50:25 10° 194° (SSW) 1,487 -0.4 -7.0°
Maximum altitude 16:53:01 21° 142° (SE) 989 -2.0 -7.4°
Drops below altitude 10° 16:55:38 10° 91° (E) 1,499 -1.5 -7.8°
Enters shadow 16:55:54 - 88° (E) 1,586 -1.4 -7.8°
